Location: �clusier
(49.9361°N, 2.7869°E)
Time: 01:28:10
(UTC+00:00)

Cosmos 1331 Rocket - Pass Details

Date: 01 November 2021
Orbit: 749 x 778 km, 74.0° (Epoch: 30 November)

Event Time Altitude Azimuth Distance (km) Brightness Sun altitude
Exits shadow 02:55:13 - 355° (N) 2,764 7.1 -35.9°
Reaches altitude 10° 02:57:51 10° 19° (NNE) 2,316 6.9 -35.5°
Maximum altitude 02:59:20 11° 36° (NE) 2,241 7.0 -35.3°
Drops below altitude 10° 03:00:49 10° 52° (NE) 2,318 7.2 -35.0°
Sets 03:05:17 0° 87° (E) 3,249 8.2 -34.4°
